Flag for Norway Weather past 2 weeks in Langevåg, Norway

43 °F

Mostly cloudy.

Feels Like: 38 °F
Forecast: 39 / 43 °F
Wind: 8 mph from South

Location: Alesund / Vigra

Current Time: Nov 29, 2015 at 12:56:03 AM

Latest Report: Nov 28, 2015 at 11:50 PM

Visibility: N/A

Pressure: 28.82 "Hg

Humidity: 66%

Dew point: 32 °F

Location of LangevågLocation

Historic Weather in Langevåg — Graph


Langevåg temperature yesterday

Maximum temperature yesterday: 43 °F (at 12:50 AM)
Minimum temperature yesterday: 37 °F (at 5:50 AM)
Average temperature yesterday: 39 °F

Past Weeks' High & Low Weather Summary

High52 °F (Nov 27, 8:50 AM)100% (Nov 15, 8:20 AM)29.92 "Hg (Nov 15, 8:20 AM)
Low28 °F (Nov 21, 9:50 PM)46% (Nov 16, 7:50 AM)28.82 "Hg (Nov 28, 10:50 PM)
Average41 °F81%29.36 "Hg
* Reported Nov 13 11:20 PM — Nov 28 11:50 PM, Langevåg, Weather by CustomWeather, © 2015

Note: Actual official high and low records may vary slightly from our data, if they occured in-between our weather recording intervals... More about our weather records


Langevåg weather history for previous 24 hours

Time TempWeatherWind HumidityBarometerVisibility
11:50 PM
Sat, Nov 28
43 °FMostly cloudy.8 mph66%28.82 "HgN/A
10:50 PM43 °FPassing clouds.17 mph57%28.82 "HgN/A
10:20 PM41 °FPassing clouds.16 mph66%28.85 "HgN/A
9:20 PM43 °FPassing clouds.16 mph57%28.88 "HgN/A
8:50 PM41 °FPassing clouds.15 mph66%28.91 "HgN/A
8:20 PM39 °FPassing clouds.14 mph75%28.94 "HgN/A
7:50 PM39 °FPassing clouds.16 mph81%28.97 "HgN/A
7:20 PM37 °FPartly cloudy.15 mph87%28.97 "HgN/A
6:50 PM37 °FScattered showers. Partly cloudy.15 mph87%29.00 "HgN/A
6:20 PM37 °FScattered showers. Partly cloudy.12 mph87%29.03 "HgN/A
5:50 PM37 °FSprinkles. Partly cloudy.16 mph87%29.03 "HgN/A
5:20 PM37 °FSprinkles. Partly cloudy.21 mph87%29.06 "Hg2 mi
4:50 PM39 °FScattered showers. Partly cloudy.17 mph81%29.06 "HgN/A
4:20 PM39 °FPassing clouds.17 mph81%29.03 "HgN/A
3:50 PM39 °FScattered showers. Partly cloudy.14 mph87%29.06 "HgN/A
3:20 PM39 °FSprinkles. Partly cloudy.17 mph81%29.06 "HgN/A
2:50 PM39 °FRain showers. Broken clouds.16 mph81%29.06 "HgN/A
2:20 PM39 °FBroken clouds.12 mph75%29.06 "HgN/A
1:20 PM37 °FLight rain. Broken clouds.17 mph87%29.09 "HgN/A
12:50 PM37 °FRain. Broken clouds.17 mph87%29.06 "HgN/A
12:20 PM37 °FLight rain. Broken clouds.17 mph87%29.09 "HgN/A
11:50 AM39 °FLight rain. Broken clouds.20 mph81%29.06 "HgN/A
11:20 AM39 °FRain showers. Partly sunny.18 mph75%29.09 "HgN/A
10:50 AM39 °FRain showers. Partly sunny.15 mph75%29.09 "HgN/A
10:20 AM39 °FRain showers. Scattered clouds.16 mph81%29.09 "HgN/A
9:50 AM39 °FPartly sunny.14 mph81%29.09 "HgN/A
9:20 AM39 °FPartly cloudy.12 mph75%29.09 "HgN/A
8:50 AM39 °FPassing clouds.13 mph87%29.09 "HgN/A
8:20 AM39 °FPassing clouds.13 mph81%29.09 "HgN/A
7:50 AM37 °FPartly cloudy.14 mph87%29.09 "HgN/A
7:20 AM37 °FRain showers. Partly cloudy.13 mph93%29.09 "HgN/A
6:50 AM39 °FRain. Partly cloudy.15 mph87%29.09 "Hg4 mi
6:20 AM37 °FRain. Partly cloudy.12 mph93%29.09 "HgN/A
5:50 AM37 °FPartly cloudy.21 mph87%29.06 "HgN/A
5:20 AM39 °FPartly cloudy.14 mph87%29.09 "HgN/A
4:50 AM39 °FLight rain. Mostly cloudy.21 mph81%29.09 "Hg2 mi
4:20 AM39 °FPartly cloudy.13 mph81%29.09 "HgN/A
3:50 AM39 °FPassing clouds.10 mph81%29.09 "HgN/A
3:20 AM39 °FLight rain. Partly cloudy.22 mph75%29.09 "Hg4 mi
2:50 AM41 °FPartly cloudy.9 mph76%29.09 "HgN/A
2:20 AM41 °FPassing clouds.8 mph76%29.09 "HgN/A
1:50 AM39 °FLight rain. Partly cloudy.14 mph75%29.12 "Hg6 mi
1:20 AM43 °FLight rain. Passing clouds.13 mph76%29.12 "HgN/A
12:50 AM43 °FPassing clouds.14 mph66%29.12 "HgN/A
Weather by CustomWeather, © 2015

See weather overviewHow to use our weather pages